Погода в Лаукуве

Погода в Лаукуве : погода сейчас, прогноз погоды и архив. Всё, что Вы хотите узнать о погоде в Лаукуве!

Поиск расширенной информации на нашем сайте:

Другие новости

Новости СМИ2

Главная страница сайта

Новости сайта

03.07.2017

Напоминаем, что на нашем специализированном сайте Метеоцентр.Азия вы можете получить высокодетализированные автоматические прогнозы погоды по пунктам России, СНГ и мира в авиационном формате (включающие направление и скорость ветра, видимость, явления погоды, количество и форму облачности, нижнюю и верхнюю границу облачности).

Рекомендуем: монтаж система вентиляции торгового центра

Погода в Лаукуве - сегодня

Время (UTC), дата Ветер
(°,м/с) 
Видим.   Явления Облачность Т
(°С)
Тd
(°С)
f(%) Тe
(°С)
Pmin
(гПа)
dP
(гПа)
Po
(мм)
O2
(г/м3)
Тmin Tmax R s Состояние
почвы
21 20.09.18 300 (СЗ) 1-3{04}  20000 м    3/0 средняя, верхняя 
[Ac trans|Ci fib]
+15.9 +13.7 87 +24  1016.1  0.4  747  281           
00 21.09.18 140 (ЮВ) 1-2{03}  8000 м  дымка  ясно 
+12.6 +11.9 95 +18  1016  -0.3  747  285           
03 21.09.18 140 (ЮВ) 4-5{05}  18000 м    ясно 
+13 +11.7 92 +17  1015.4  -0.6  747  284           
06 21.09.18 140 (ЮВ) 5-6{06}  20000 м    5/0 средняя, верхняя 
[Ac trans|Ci sp]
+15.6 +12.7 83 +20  1014.1  -1  746  281  +11.6        сухая 
09 21.09.18 170 (Ю) 5-8{09}  19000 м    6/0 средняя, верхняя 
[Ac trans|Ci sp]
+22.3 +14.5 61 +30  1012.7  -1  745  274           
12 21.09.18 200 (Ю) 8-12{13}  20000 м    5/1 1000 м верхняя 
[Cu hum|Ci sp]
+26.9 +13.5 44 +33  1010.4  -2  744  270           
15 21.09.18 160 (Ю) 6-9{13}  20000 м    4/0 верхняя 
[Ci sp]
+25.5 +10.3 38 +27  1007.9  -2.6  742  271           
18 21.09.18 160 (Ю) 6-8{12}  20000 м    3/0 верхняя 
[Ci sp]
+20.9 +11.5 55 +24  1005.6  -2.5  740  274    +27.1       
21 21.09.18 170 (Ю) 6-9{11}  20000 м    1/0 верхняя 
[Ci fib]
+19.9 +9.8 52 +21  1003.2  -2.4  738  275           
00 22.09.18 280 (З) 7-13{13}  20000 м    10/8 870 м верхняя 
[Sc|Ci sp]
+14.9 +10.7 76 +16  1004.4  0.8  739  280           
03 22.09.18 240 (ЮЗ) 2-4{13}  11000 м  слаб. ливневой дождь  10/8 1000 м кучево-дожд., средняя 
[Cb cap|Ac As]
+12.1 +10.4 89 +14  1006.3  1.7  740  283           
06 22.09.18 220 (ЮЗ) 5-9{12}  19000 м  в посл. час ливневой дождь  9/8 900 м кучево-дожд., средняя 
[Cb cap|Ac trans]
+11.4 +10.3 93 +12  1007.6  1.3  741  284  +11.1      влажная 
09 22.09.18 240 (ЮЗ) 5-8{11}  20000 м  гроза без осадков{ливн. осадки}  8/6 1000 м кучево-дожд., верхняя 
[Cb cap|Ci sp]
+10.7 +8.2 85 +10  1009.3  1.6  742  286           
12 22.09.18 260 (З) 8-13{15}  13000 м  слаб. ливневой дождь{гроза}  9/9 1000 м кучево-дожд. 
[Cb cap]
+11.8 +8.5 80 +10  1009.9  0.7  743  285         
15 22.09.18 260 (З) 6-9{14}  20000 м  {ливн. осадки}  8/5 1000 м верхняя 
[Cu Sc|Ci sp]
+13.2 +7.7 69 +12  1010.4  0.5  743  284           
18 22.09.18 230 (ЮЗ) 4-7{11}  20000 м  в посл. час ливневой дождь  9/6 1000 м кучево-дожд., верхняя 
[Cb cap|Ci sp]
+10.2 +7.7 84 +9  1010.9  0.3  743  287    +13.9     
21 22.09.18 200 (Ю) 6-8{13}  20000 м  в посл. час ливневой дождь  8/5 1000 м средняя, верхняя 
[Cu Sc|Ac trans|Ci sp]
+8.7 +7.3 91 +7  1009.8  -1.2  742  288           
00 23.09.18 210 (ЮЗ) 5-6{11}  20000 м  в посл. час ливневой дождь  9/6 1000 м верхняя 
[Cu Sc|Ci sp]
+8.3 +6.8 90 +7  1009.2  -0.6  742  289         
03 23.09.18 200 (Ю) 6-9{10}  18000 м  слаб. ливневой дождь  9/9 930 м кучево-дожд. 
[Cb cap]
+8 +7.6 97 +6  1007.8  -1.4  741  288           
06 23.09.18 220 (ЮЗ) 6-11{12}  19000 м  слаб. ливневой дождь  10/10 240 м кучево-дожд. 
[Cb cap]
+8.4 +7.3 93 +7  1007.6  -0.2  741  288  +7.5      мокрая 
09 23.09.18 210 (ЮЗ) 7-10{11}  20000 м  в посл. час ливневой дождь  8/6 1260 м кучево-дожд., верхняя 
[Cb cap|Ci fib]
+9.3 +8.5 95 +7  1007.5  741  286           
12 23.09.18 230 (ЮЗ) 4-8{11}  20000 м  в посл. час ливневой дождь  9/9 300 м кучево-дожд. 
[Cb cap]
+10.4 +9.2 92 +10  1008.1  0.7  741  286         
15 23.09.18 230 (ЮЗ) 4-7{10}  20000 м  в посл. час ливневой дождь  6/5 1000 м кучево-дожд., верхняя 
[Cb calv|Ci sp]
+11.7 +9.2 85 +11  1006.9  -1.1  740  284           
18 23.09.18 210 (ЮЗ) 4-6{07}  20000 м  {ливн. осадки}  8/4 1000 м средняя, верхняя 
[Sc|Ac trans|Ci sp]
+9.3 +6.2 81 +8  1006.3  -0.8  740  287    +12.4     
21 23.09.18 300 (СЗ) 2-3{08}  20000 м  {ливн. осадки}  10/5 240 м средняя 
[Sc|Ac As]
+8.3 +7.3 93 +8  1005  -1.3  739  287           
Время (UTC), дата Ветер
(°,м/с) 
Видим.   Явления Облачность Т
(°С)
Тd
(°С)
f(%) Тe
(°С)
Pmin
(гПа)
dP
(гПа)
Po
(мм)
O2
(г/м3)
Тmin Tmax R s Состояние
почвы

Для получения пояснительной информации подведите курсор к названию столбца.

ПОГОДА в Лаукуве - архив

Всё, что Вы хотите узнать о погоде в Лаукуве - удобно и подробно!

Выберите нужную дату (начиная с 1 января 2015* года) и нажмите кнопку "Найти".
Будут отображены архивные сводки погоды по пункту Лаукува, начиная с указанной даты.


Отображать данные в формате CSV (для использования в таблицах Excel)


Внимание! Наш архив погоды предназначен исключительно для личного некоммерческого использования в познавательных целях. Если Вам необходимы официальные справки о состоянии погоды (для производственных, юридических, коммерческих и т.п. целей), обращайтесь в органы Росгидромета.

*Примечание: данная дата относится к архиву по метеостанциям СССР (Россия, СНГ, Балтия).
Архив по метеостанциям Зарубежной Европы и Азии (кроме Китая) хранится 10 дней, по другим регионам земного шара (Китай, Африка, Америка, Австралия, Океания) - 1 день.

Лаукува - район местоположения метеостанции


Название, широта, долгота, высота метеостанции:
Лаукува 55.6°ш. 22.2°д. 166 м над ур. моря [Литва]

Дополнительная информация

В oтличие oт бoльшинства пoгoдных сайтoв мы публикуем пoдрoбную метеoинфoрмацию в детальнoм прoфессиoнальнoм фoрмате.

Характеристики температуры и влажнoсти вoздуха измеряются на высoте 2 м в тени вдали oт зданий и деревьев.
Скoрoсть ветра измеряется на высoте 10 м (на урoвне рoста челoвека скoрoсть ветра ниже в 1.5-2 раза). Если метеoстанция нахoдится в гoрoде или в лесу, тo скoрoсть ветра занижена на 2-4 м/с пo сравнению с oткрытым местoм. Скoрoсть ветра над акватoриями крупных рек и oзёр, а также на вершинах хoлмoв на 2-5 м/с выше, чем в oбычных услoвиях.
Атмoсфернoе давление в разных тoчках местнoсти мoжет значительнo oтличаться oт давления на метеoстанции, в зависимoсти oт услoвий рельефа (при пoдъёме на 10 м давление пoнижается примернo на 1 мм рт.ст.).